#timestamp,LO_Frequency 
1453382615.3,900015.3
1453382635.3,10000054.7
1453382655.2,286046967.9
1453382675.1,286046985.9
1453382695.0,286046988.0
1453382696.0,286046988.0
1453382715.9,286046998.7
1453382735.8,286046990.9
1453382755.7,286046989.7
1453382775.7,286046991.4
1453382795.6,286046988.2
1453382815.5,286046988.8
1453382835.4,286046992.7
1453382855.4,286046991.2
1453382875.3,286046991.0
1453382895.2,286046991.3
1453382915.1,286046993.1
1453382935.1,286046990.5
1453382936.0,286046990.5
1453382955.0,286047001.7
1453382955.9,286047001.7
1453382975.8,286046990.1
1453382995.8,286046993.9
1453383015.7,286046991.7
1453383035.6,286046993.8
1453383055.5,286046994.0
1453383075.5,286046993.9
1453383095.4,286046992.4
1453383115.3,286046994.8
1453383135.2,286046992.9
1453383155.2,286046994.7
1453383175.1,286046994.5
1453383195.0,286046994.8
1453383195.9,286046994.8
1453383215.9,286046997.6
1453383235.8,286046994.3
1453383255.7,286046996.4
1453383275.6,286046993.0
1453383295.6,286046994.1
1453383315.5,286046995.7
1453383335.4,286046993.9
1453383355.3,286046996.2
1453383375.3,286046994.2
1453383395.2,286046995.8
1453383415.1,286046996.2
1453383435.0,286046993.6
1453383436.0,286046993.6
1453383455.9,286047002.6
1453383475.8,286046993.4
1453383495.7,286046995.3
1453383515.7,286046997.0
1453383535.6,286046995.7
1453383555.5,286046997.1
1453383575.4,286046995.6
1453383595.4,286046996.3
1453383615.3,286046996.4
1453383635.2,286046996.1
1453383655.1,286046995.9
1453383675.1,286046996.2
1453383676.0,286046996.2
1453383695.9,286046998.1
1453383715.8,286046998.9
1453383735.8,286046997.7
1453383755.7,286046995.5
1453383775.6,286046997.9
1453383795.5,286046996.4
1453383815.5,286046995.7
1453383835.4,286046999.2
1453383855.3,286046993.7
1453383875.2,286046999.4
1453383895.2,286046995.3
1453383915.1,286046997.3
1453383916.0,286046997.3
1453383935.0,286047000.9
1453383935.9,286047000.9
1453383955.9,286046993.8
1453383975.8,286046996.9
1453383995.7,286046996.7
1453384015.6,286046998.1
1453384035.6,286046996.8
1453384055.5,286046999.1
1453384075.4,286046997.7
1453384095.3,286046997.1
1453384115.3,286046996.6
1453384135.2,286046998.6
1453384155.1,286046999.2
1453384175.0,286046995.4
1453384175.9,286046995.4
1453384195.9,286047003.6
1453384215.8,286046997.3
1453384235.7,286046996.8
1453384255.6,286046999.3
1453384275.6,286046996.9
1453384295.5,286046999.1
1453384315.4,286046995.8
1453384335.3,286046996.7
1453384355.3,286046999.3
1453384375.2,286046996.6
1453384395.1,286046998.4
1453384415.0,286046998.5
1453384416.0,286046998.5
1453384435.9,286047001.1
1453384455.8,286046996.9
1453384475.8,286046998.8
1453384495.7,286046999.3
1453384515.6,286046997.6
1453384535.5,286046997.8
1453384555.5,286046997.5
1453384575.4,286046998.3
1453384595.3,286046998.3
1453384615.2,286046998.1
1453384635.2,286047000.5
1453384655.1,286046998.9
1453384675.0,286046998.4
1453384675.9,286046998.4
1453384695.9,286047000.4
1453384715.8,286046996.6
1453384735.7,286046999.9
1453384755.6,286046996.9
1453384775.6,286047000.8
1453384795.5,286046997.9
